Location: Colonia Mina de C?rbuni
(46.1667°N, 22.7167°E)
Time: 14:45:02
(UTC+00:00)

Courier 1B - Pass Details

Date: 25 April 2024
Orbit: 962 x 1208 km, 28.3° (Epoch: 23 May)

Event Time Altitude Azimuth Distance (km) Brightness Sun altitude
Rises 00:06:13 0° 237° (WSW) 4,061 - -26.5°
Reaches altitude 10° 00:10:02 10° 221° (SW) 3,065 - -26.2°
Maximum altitude 00:14:58 19° 179° (S) 2,415 - -25.8°
Exits shadow 00:19:11 12° 142° (SE) 2,833 9.7 -25.4°
Drops below altitude 10° 00:19:46 10° 138° (SE) 2,952 9.8 -25.4°
Sets 00:23:21 0° 121° (ESE) 3,861 10.6 -25.0°
